NOAA 1 [-]

Last updated on Fri Dec 29 2023 00:02:19 GMT+0000 (Greenwich Mean Time)

1 04793U 70106A 23361.78474866 -.00000015 00000+0 17973-3 0 9998 2 04793 101.4762 54.6716 0031267 314.0246 164.5185 12.54022652427578
UTC large
Height (km)
Speed (km/s)
/
Latitude / Longitude
Inclination (degrees)
Orbital Period (minutes)
Azimuth
Elevation
Range (km)
Doppler Factor

Next 0 passes for location: London (51.5072 / 0.1276)

Sorry there are no passes over London.